MAUNA LOA HI US current weather conditions

sailwx.info

Wind from 334 at 7 knots gusting 16

Air temperature 16.1° C
Dewpoint 14.1° C

Last reported at 2016-Jul-23 10:34 UTC.
Time now 2016-Jul-23 11:16 UTC

Location: N 19°28' W 155°22'.
View on Google Maps.

See reports from other nearby stations

  
Tides and Currents Weather Stations Pressure Air Temp Water Temp Dewpoint Dewpoint Depression Visibility Wind Speed Wind Dir Waves Ship Positions
date/time (UTC)wind fromknots sea level pressurealtimeterstation pressurevisibilityair tempwater tempwave heightnotes
2016-Jul-23 10:34 334 7 gusting 16 16.1
2016-Jul-23 09:34 344 8 gusting 18 16.7
2016-Jul-23 08:34 333 9 gusting 25 17.2
2016-Jul-23 07:34 322 8 gusting 24 16.7
2016-Jul-23 06:34 340 7 gusting 15 15.6
2016-Jul-23 05:34 351 5 gusting 16 16.7
2016-Jul-23 04:34 144 2 gusting 14 17.8
2016-Jul-23 03:34 334 7 gusting 18 21.1
2016-Jul-23 02:34 007 7 gusting 18 22.8
2016-Jul-23 01:34 357 9 gusting 19 23.3
2016-Jul-23 00:34 002 8 gusting 21 25.6
2016-Jul-22 23:34 014 11 gusting 17 26.1
2016-Jul-22 22:34 002 6 gusting 14 28.9
2016-Jul-22 21:34 357 7 gusting 17 27.8
2016-Jul-22 20:34 340 9 gusting 20 24.4
2016-Jul-22 19:34 330 6 gusting 19 23.9
2016-Jul-22 18:34 334 10 gusting 22 21.1
2016-Jul-22 17:34 321 8 gusting 19 19.4
2016-Jul-22 16:34 323 8 gusting 19 17.2
2016-Jul-22 15:34 327 9 gusting 19 16.7
2016-Jul-22 14:34 323 9 gusting 19 16.1
2016-Jul-22 13:34 310 6 gusting 15 16.1
2016-Jul-22 12:34 332 6 gusting 14 16.7
2016-Jul-22 11:34 331 6 gusting 14 16.7
2016-Jul-22 10:34 327 6 gusting 12 16.1
2016-Jul-22 09:34 310 6 gusting 13 15.6
2016-Jul-22 08:34 319 6 gusting 11 14.4
2016-Jul-22 07:34 310 6 gusting 13 16.1
2016-Jul-22 06:34 314 7 gusting 17 17.8
2016-Jul-22 05:34 329 8 gusting 18 18.3
2016-Jul-22 04:34 326 8 gusting 18 19.4
2016-Jul-22 03:34 337 7 gusting 17 22.8
2016-Jul-22 02:34 342 7 gusting 21 23.9
2016-Jul-22 01:34 347 10 gusting 19 24.4
2016-Jul-22 00:34 003 8 gusting 19 26.1
2016-Jul-21 23:34 011 9 gusting 17 26.1
2016-Jul-21 22:34 025 10 gusting 17 26.1
2016-Jul-21 21:34 016 9 gusting 18 26.7
2016-Jul-21 20:34 018 7 gusting 14 26.7
2016-Jul-21 19:34 004 6 gusting 13 25.0
2016-Jul-21 18:34 347 6 gusting 14 22.2
2016-Jul-21 17:34 353 6 gusting 12 20.0
2016-Jul-21 16:34 316 6 gusting 13 14.4
2016-Jul-21 15:34 316 6 gusting 15 13.9
2016-Jul-21 14:34 319 7 gusting 15 14.4
2016-Jul-21 13:34 320 7 gusting 14 13.9
2016-Jul-21 12:34 310 8 gusting 14 12.8
2016-Jul-21 11:34 310 8 gusting 14 12.2